Regional Weather Roundup
Issued by NWS Cleveland, OH

Home | Current Version | Previous Version | Graphics & Text | Print | Product List | Glossary On
Versions: 1 2 3 4 5 6 7 8 9 10 11 12 13 14 15 16 17 18 19 20 21 22 23 24 25 26 27 28 29 30 31 32 33 34 35 36 37 38 39 40 41 42 43 44 45 46 47 48 49 50
000
ASUS41 KCLE 260200
RWRCLE
OHIO REGIONAL WEATHER ROUNDUP
NATIONAL WEATHER SERVICE WILMINGTON, OH
1000 PM EDT TUE JUL 25 2017

NOTE: "FAIR" INDICATES FEW OR NO CLOUDS BELOW 12,000 FEET WITH NO
SIGNIFICANT WEATHER AND/OR OBSTRUCTIONS TO VISIBILITY.

OHZ001>008-015>018-024>027-034-035-043-044-260300-
   NORTHWEST OHIO

CITY           SKY/WX    TMP DP  RH WIND       PRES   REMARKS
DEFIANCE       FAIR     N/A N/A N/A E3        30.20R
FINDLAY        FAIR      69  57  65 E6        30.19R
TOLEDO EXPRESS FAIR      65  58  78 SE3       30.20R
TOLEDO EXEC    FAIR      67  62  84 E3        30.21R
LIMA           FAIR      64  62  93 E5        30.20R
$$

OHZ009>014-019>023-028>033-038-089-260300-
   NORTHEAST OHIO

CITY           SKY/WX    TMP DP  RH WIND       PRES   REMARKS
CLE-HOPKINS    FAIR      71  57  61 E7        30.23S
CLE-LAKEFRONT  FAIR      70  57  63 E5        30.21R
CUY CO. ARPT   PTCLDY    64  59  82 SE5       30.24R
LORAIN-ELYRIA  FAIR      62  55  77 E3        30.22S
ASHTABULA      FAIR      59  57  93 NE3       30.25R
AKRON-CANTON   FAIR      67  57  70 NE10      30.23R
WOOSTER        NOT AVBL
MANSFIELD      FAIR      65  61  87 NE7       30.22R
YOUNGSTOWN     FAIR      63  56  78 NE5       30.23R
$$

OHZ042-051>053-060>062-070>072-077>081-260300-
  SOUTHWEST OHIO

CITY           SKY/WX    TMP DP  RH WIND       PRES   REMARKS
CINC-COVINGTON FAIR      72  63  73 E9        30.16F
CINC-LUNKEN    FAIR      69  64  84 CALM      30.17S
HAMILTON       FAIR      66  63  90 E3        30.17F
DAYTON         NOT AVBL
WRIGHT-PAT AFB FAIR      67  62  81 CALM      30.18S
DAYTON GENERAL FAIR      68  60  75 E5        30.18S
WILMINGTON     FAIR      65  62  90 E5        30.19F
$$

OHZ036-037-039>041-045>050-054>059-063>069-073>076-082>088-260300-
  CENTRAL AND SOUTHEAST OHIO

CITY           SKY/WX    TMP DP  RH WIND       PRES   REMARKS
COLUMBUS       FAIR      70  62  76 E6        30.20R
OSU AIRPORT    MOCLDY    67  61  81 E6        30.20R
BOLTON FIELD   NOT AVBL
RICKENBACK AFB NOT AVBL
NEWARK         FAIR      63  61  93 CALM      30.21R
MARION         FAIR      65  60  84 CALM      30.21R
LANCASTER      FAIR      63  61  93 CALM      30.22R
ZANESVILLE     FAIR      65  60  84 CALM      30.21R
NEW PHILLY     FAIR      64  62  93 CALM      30.22R
$$



USA.gov is the U.S. government's official web portal to all federal, state and local government web resources and services.